CW3467 Sant Marti de Canals ES current weather conditions

sailwx.info

Wind from 188

Air temperature 2.8° C
Dewpoint 2.8° C

Last reported at 2014-Dec-20 11:48 UTC.
Time now 2014-Dec-20 13:00 UTC

Location: N 42°14' E 000°59'.
View on Google Maps.

See reports from other nearby stations

  
Tides and Currents Weather Stations Pressure Air Temp Water Temp Dewpoint Dewpoint Depression Visibility Wind Speed Wind Dir Waves Ship Positions
date/time (UTC)wind fromknots sea level pressurealtimeterstation pressurevisibilityair tempwater tempwave heightnotes
2014-Dec-20 11:48 188 2.8
2014-Dec-20 11:33 160 2.8
2014-Dec-20 11:18 224 2.8
2014-Dec-20 11:03 280 2.8
2014-Dec-20 10:48 252 2.8
2014-Dec-20 10:33 127 2.2
2014-Dec-20 10:18 288 2.2
2014-Dec-20 10:03 359 2.2
2014-Dec-20 09:48 028 1.7
2014-Dec-20 09:33 353 0 gusting 2 1.1
2014-Dec-20 09:18 329 1.7
2014-Dec-20 09:03 052 1.1
2014-Dec-20 08:48 018 1.1
2014-Dec-20 08:33 224 1.1
2014-Dec-20 08:18 047 1.1
2014-Dec-20 08:03 355 1.1
2014-Dec-20 07:48 015 1.1
2014-Dec-20 07:33 006 1.1
2014-Dec-20 07:18 322 1.1
2014-Dec-20 07:03 025 1.1
2014-Dec-20 06:48 197 1.1
2014-Dec-20 06:33 044 1.7
2014-Dec-20 06:18 043 1.1
2014-Dec-20 06:03 018 1.1
2014-Dec-20 05:48 013 1.1
2014-Dec-20 05:33 031 1.1
2014-Dec-20 05:18 023 1.1
2014-Dec-20 05:03 222 1.1
2014-Dec-20 04:48 219 1.7
2014-Dec-20 04:33 020 1.1
2014-Dec-20 04:18 026 1.7
2014-Dec-20 04:03 025 1.7
2014-Dec-20 03:48 026 1.7
2014-Dec-20 03:33 057 1.7
2014-Dec-20 03:18 346 1.1
2014-Dec-20 03:03 041 1.7
2014-Dec-20 02:48 043 1.7
2014-Dec-20 02:33 042 1.1
2014-Dec-20 02:18 017 1.7
2014-Dec-20 02:03 347 1.7
2014-Dec-20 01:47 345 1.7
2014-Dec-20 01:32 340 1.7
2014-Dec-20 01:17 015 2.2
2014-Dec-20 01:02 080 2.2
2014-Dec-20 00:47 081 2.2
2014-Dec-20 00:32 020 2.2
2014-Dec-20 00:17 082 2.2
2014-Dec-20 00:02 023 2.8
2014-Dec-19 23:47 105 2.8
2014-Dec-19 23:32 215 3.3
2014-Dec-19 23:17 134 3.3
2014-Dec-19 23:02 132 3.3
2014-Dec-19 22:47 133 3.3
2014-Dec-19 22:32 132 3.3
2014-Dec-19 22:17 132 3.3
2014-Dec-19 22:02 095 3.9
2014-Dec-19 21:47 089 3.9
2014-Dec-19 21:32 020 3.9
2014-Dec-19 21:17 049 4.4
2014-Dec-19 21:02 102 4.4
2014-Dec-19 20:47 100 4.4
2014-Dec-19 20:32 127 4.4
2014-Dec-19 20:17 132 4.4
2014-Dec-19 20:02 132 5.0
2014-Dec-19 19:47 091 5.6
2014-Dec-19 19:32 108 5.6
2014-Dec-19 19:17 350 5.6
2014-Dec-19 19:02 359 5.6
2014-Dec-19 18:47 032 5.6
2014-Dec-19 18:32 352 5.6
2014-Dec-19 18:17 017 5.6
2014-Dec-19 18:02 150 6.1
2014-Dec-19 17:47 150 6.1
2014-Dec-19 17:34 125 6.7
2014-Dec-19 17:19 347 6.7
2014-Dec-19 17:02 345 0 gusting 2 7.2
2014-Dec-19 16:47 269 7.8
2014-Dec-19 16:32 269 8.3
2014-Dec-19 16:17 270 10.6
2014-Dec-19 16:02 262 10.6
2014-Dec-19 15:47 261 11.7
2014-Dec-19 15:32 245 12.8
2014-Dec-19 15:17 221 13.3
2014-Dec-19 14:47 214 12.8
2014-Dec-19 14:32 212 12.8
2014-Dec-19 14:17 159 12.2
2014-Dec-19 14:02 219 12.2
2014-Dec-19 13:47 208 11.7
2014-Dec-19 13:32 215 11.7
2014-Dec-19 13:17 274 10.6
2014-Dec-19 13:01 236 10.6
2014-Dec-19 12:46 236 10.6
2014-Dec-19 12:31 183 10.0
2014-Dec-19 12:16 215 10.0
2014-Dec-19 12:01 228 10.0
2014-Dec-19 11:46 215 8.9
2014-Dec-19 11:31 236 8.3
2014-Dec-19 11:16 340 7.8
2014-Dec-19 11:01 198 8.3
2014-Dec-19 10:46 221 7.8
2014-Dec-19 10:31 222 6.7
2014-Dec-19 10:16 232 6.7
2014-Dec-19 10:01 276 6.1
2014-Dec-19 09:46 224 6.1
2014-Dec-19 09:31 040 5.0
2014-Dec-19 09:16 039 3.9
2014-Dec-19 09:01 108 3.3
2014-Dec-19 08:46 121 5.0
2014-Dec-19 08:31 122 4.4
2014-Dec-19 08:16 126 3.9
2014-Dec-19 08:01 124 2.8
2014-Dec-19 07:46 124 2.8
2014-Dec-19 07:31 124 2.8
2014-Dec-19 07:16 039 2.8
2014-Dec-19 07:01 065 2.8
2014-Dec-19 06:46 089 2.8
2014-Dec-19 06:31 078 3.3
2014-Dec-19 06:16 077 3.3
2014-Dec-19 06:01 037 3.9
2014-Dec-19 05:46 037 3.3
2014-Dec-19 05:31 037 3.3
2014-Dec-19 05:16 044 3.3
2014-Dec-19 05:01 044 3.9
2014-Dec-19 04:46 032 3.9
2014-Dec-19 04:31 026 3.9
2014-Dec-19 04:16 004 3.9
2014-Dec-19 04:01 005 3.9
2014-Dec-19 03:46 005 3.9
2014-Dec-19 03:30 018 3.9
2014-Dec-19 03:15 077 4.4
2014-Dec-19 03:00 073 3.9
2014-Dec-19 02:46 075 4.4
2014-Dec-19 02:30 020 4.4
2014-Dec-19 02:15 022 4.4
2014-Dec-19 02:00 020 4.4
2014-Dec-19 01:45 020 5.0
2014-Dec-19 01:30 026 5.0
2014-Dec-19 01:15 039 5.0
2014-Dec-19 01:00 087 5.6
2014-Dec-19 00:45 087 5.6
2014-Dec-19 00:30 100 4.4
2014-Dec-19 00:15 141 4.4
2014-Dec-19 00:00 092 5.0
2014-Dec-18 23:45 094 5.6
2014-Dec-18 23:30 134 5.6
2014-Dec-18 23:15 097 5.0
2014-Dec-18 23:00 073 5.0
2014-Dec-18 22:45 091 5.6
2014-Dec-18 22:30 090 6.1
2014-Dec-18 22:15 307 6.1
2014-Dec-18 22:00 037 5.6
2014-Dec-18 21:45 102 5.6
2014-Dec-18 21:30 132 5.6
2014-Dec-18 21:15 048 0 gusting 2 6.7
2014-Dec-18 21:00 031 6.7
2014-Dec-18 20:45 099 6.1
2014-Dec-18 20:30 100 0 gusting 1 6.1
2014-Dec-18 20:15 145 6.1
2014-Dec-18 20:00 047 7.2
2014-Dec-18 19:45 039 7.2
2014-Dec-18 19:30 053 6.7
2014-Dec-18 19:15 115 6.7
2014-Dec-18 19:00 116 7.2
2014-Dec-18 18:45 110 7.2
2014-Dec-18 18:30 184 7.2
2014-Dec-18 18:15 111 7.8
2014-Dec-18 18:00 098 7.8
2014-Dec-18 17:45 073 7.8
2014-Dec-18 17:30 330 7.8
2014-Dec-18 17:15 114 8.3
2014-Dec-18 17:00 115 8.3
2014-Dec-18 16:45 091 2 gusting 3 8.9
2014-Dec-18 16:30 084 9.4
2014-Dec-18 16:15 281 10.6
2014-Dec-18 15:59 318 10.6
2014-Dec-18 15:44 229 9.4
2014-Dec-18 15:29 228 8.9
2014-Dec-18 15:14 228 9.4
2014-Dec-18 15:00 259 9.4
2014-Dec-18 14:44 260 9.4
2014-Dec-18 14:29 266 9.4
2014-Dec-18 14:15 250 9.4
2014-Dec-18 13:59 215 8.9
2014-Dec-18 13:44 215 8.9
2014-Dec-18 13:29 155 8.9
2014-Dec-18 13:14 216 8.9